Find CZ-2C Y68 Stage 2

NORAD ID: 100367 Int'l Des: 2026-187 Owner: CASC Country: CN operational
又名: OBJECT B spacetrack, celestrak

当前视图

正在加载3D地球...

About CZ-2C Y68 Stage 2

CZ-2C Y68 Stage 2 (NORAD 100367) is a satellite launched Aug 17, 2026 by CASC of CN. with a mass of 3800.00 kg.

即将过境

Passes for default location (London). Set your location on the main map for personalized predictions.

高度历史

Loading altitude history...

两行轨道根数

1 A0367U 26188B 26262.93586878 .00003630 00000-0 15562-3 0 9997
2 A0367 97.5088 332.0389 0014507 143.8599 216.3621 15.23308248 5146
Epoch: Sep 19, 2026 • Age: 15 hours

当前状态

高度 531.0 km
远地点 / 近地点 N/A
速度 7.59 km/s
星下点 -80.81°S, 179.56°E
发射日期 Aug 17, 2026
运行时间 34 days
类型 other

技术详情

分类 Launch Vehicle Stage
质量 3800.00 kg
直径 3.30 m
跨度 8.40 m
形状 Cyl
制造商 CALT
平台类型 CZ-2 Stage 2
阶段状态 In Orbit
所有者/国家 CASC/CN

Most Searched